Russellville, AR

9:30 AM CDT on June 28, 2017 (GMT -0500)
Russellville Regional

Weather History for KRUE - January, 2014

Change the Weather History Date:

Sunday, January 19, 2014

  Actual Average (KHOT) Record (KHOT)
Temperature  
Mean Temperature 44 °F -  
Max Temperature 57 °F 49 °F 75 °F (1951)
Min Temperature 30 °F 31 °F 7 °F (1984)
Degree Days  
Heating Degree Days 22    
Moisture  
Dew Point 23 °F    
Average Humidity 52    
Maximum Humidity 79    
Minimum Humidity 24    
Precipitation  
Precipitation 0.00 in - - ()
Sea Level Pressure  
Sea Level Pressure 30.10 in    
Wind  
Wind Speed 4 mph (WNW)    
Max Wind Speed 9 mph    
Max Gust Speed -    
Visibility 10 miles    
Events      
Averages and records for this station are not official NWS values.
T = Trace of Precipitation, MM = Missing Value Source: NWS Daily Summary

Daily Weather History Graph

Daily Weather History Graph

Search for Another Location

Airport or City:

Trip Planner

Search our weather history database for the weather conditions in past years. The results will help you decide how hot, cold, wet, or windy it might be!

Date:

Astronomy

Jan. 19, 2014 Rise Set
Actual Time 7:19 AM CST 5:27 PM CST
Civil Twilight 6:51 AM CST 5:54 PM CST
Nautical Twilight 6:20 AM CST 6:25 PM CST
Astronomical Twilight 5:50 AM CST 6:56 PM CST
Moon 8:56 PM CST (1/19) 8:58 AM CST (1/19)
Length of Visible Light 11h 03m
Length of Day
10h 08m
Waning Gibbous, 89% of the Moon is Illuminated
Jan 19
Waning Gibbous
Jan 23
Last Quarter
Jan 30
New
Feb 6
First Quarter
Feb 14
Full

Hourly Weather History & Observations

Time (CST) Temp. Windchill Dew Point Humidity Pressure Visibility Wind Dir Wind Speed Gust Speed Precip Events Conditions
12:53 AM 45.0 °F 41.8 °F 23.0 °F 42% 30.07 in 10.0 mi WNW 5.8 mph - N/A   Clear
1:53 AM 43.0 °F 40.3 °F 23.0 °F 45% 30.08 in 10.0 mi West 4.6 mph - N/A   Clear
2:53 AM 41.0 °F 36.4 °F 21.9 °F 47% 30.11 in 10.0 mi WNW 6.9 mph - N/A   Clear
3:53 AM 39.0 °F 33.4 °F 24.1 °F 55% 30.13 in 10.0 mi WNW 8.1 mph - N/A   Clear
4:53 AM 36.0 °F - 21.9 °F 57% 30.13 in 10.0 mi Calm Calm - N/A   Clear
5:53 AM 30.9 °F - 21.9 °F 69% 30.16 in 10.0 mi Calm Calm - N/A   Clear
6:53 AM 30.0 °F - 21.0 °F 69% 30.18 in 10.0 mi Calm Calm - N/A   Clear
7:53 AM 32.0 °F 28.7 °F 19.9 °F 61% 30.19 in 10.0 mi West 3.5 mph - N/A   Clear
8:53 AM 37.9 °F 35.5 °F 21.0 °F 51% 30.19 in 10.0 mi NW 3.5 mph - N/A   Clear
9:53 AM 42.1 °F 36.6 °F 21.0 °F 43% 30.21 in 10.0 mi WNW 9.2 mph - N/A   Clear
10:53 AM 44.1 °F 40.8 °F 19.9 °F 38% 30.21 in 10.0 mi Variable 5.8 mph - N/A   Clear
11:53 AM 48.0 °F - 21.0 °F 34% 30.17 in 10.0 mi Variable 3.5 mph - N/A   Clear
12:53 PM 51.1 °F - 19.9 °F 29% 30.12 in 10.0 mi Calm Calm - N/A   Clear
1:53 PM 55.9 °F - 19.9 °F 25% 30.09 in 10.0 mi West 5.8 mph - N/A   Clear
2:53 PM 57.9 °F - 21.0 °F 24% 30.06 in 10.0 mi WNW 5.8 mph - N/A   Clear
3:53 PM 57.9 °F - 21.9 °F 25% 30.05 in 10.0 mi Calm Calm - N/A   Clear
4:53 PM 55.9 °F - 23.0 °F 28% 30.03 in 10.0 mi WNW 3.5 mph - N/A   Clear
5:53 PM 42.1 °F - 28.9 °F 60% 30.02 in 10.0 mi Calm Calm - N/A   Clear
6:53 PM 37.0 °F - 27.0 °F 67% 30.03 in 10.0 mi Calm Calm - N/A   Clear
7:53 PM 34.0 °F - 26.1 °F 73% 30.03 in 10.0 mi Calm Calm - N/A   Clear
8:53 PM 33.1 °F - 25.0 °F 72% 30.01 in 10.0 mi Calm Calm - N/A   Clear
9:53 PM 33.1 °F - 26.1 °F 75% 30.01 in 10.0 mi Calm Calm - N/A   Clear
10:53 PM 32.0 °F - 25.0 °F 75% 30.01 in 10.0 mi Calm Calm - N/A   Clear
11:53 PM 30.9 °F - 25.0 °F 79% 30.00 in 10.0 mi Calm Calm - N/A   Clear